Regional Weather Roundup
Issued by NWS Sioux Falls, SD

Home | Current Version | Previous Version | Text Only | Print | Product List | Glossary On
Versions: 1 2 3 4 5 6 7 8 9 10 11 12 13 14 15 16 17 18 19 20 21 22 23 24 25 26 27 28 29 30 31 32 33 34 35 36 37 38 39 40 41 42 43 44 45 46 47 48 49 50
692
ASUS43 KFSD 060702
RWRFSD

WEATHER ROUNDUP FOR SE SOUTH DAKOTA/SW MINNESOTA/NW IOWA
NATIONAL WEATHER SERVICE SIOUX FALLS SD
100 AM CST SAT FEB 06 2016

NOTE: "FAIR" INDICATES FEW OR NO CLOUDS BELOW 12,000 FEET WITH NO
SIGNIFICANT WEATHER AND OR OBSTRUCTIONS TO VISIBILITY.


SDZ038>040-050-052>070-060800-
SOUTHEAST SOUTH DAKOTA

CITY           SKY/WX    TMP DP  RH WIND       PRES   REMARKS
BROOKINGS      FOG       20  18  92 S5        30.15F VSB 1/4 WCI  13
CHAMBERLAIN    NOT AVBL
HURON          CLEAR     24  21  88 S9        30.15S WCI  14
MADISON        CLOUDY    21  21 100 SW8       30.16F FOG     WCI  12
MITCHELL       CLEAR     25  22  88 SW8       30.19F WCI  16
SIOUX FALLS    FOG       22  20  92 W6        30.19F VSB 1/4 WCI  14
WINNER         FAIR      29  20  69 SW7       30.18S WCI  22
YANKTON          N/A     23  19  86 SW7       30.22F VSB 1/2 WCI  15
$$

MNZ071-072-080-081-089-090-097-098-060800-
SOUTHWEST MINNESOTA

CITY           SKY/WX    TMP DP  RH WIND       PRES   REMARKS
FAIRMONT       CLOUDY    27  21  80 W8        30.18S WCI  18
JACKSON        PTCLDY    25  21  86 W6        30.18S FOG     WCI  18
LUVERNE        FOG       23  21  93 W3        30.20S VSB 1/4
MARSHALL       CLEAR     21  19  92 W10       30.16F WCI  10
MONTEVIDEO     CLOUDY    18  16  93 W8        30.16F WCI   7
PIPESTONE        N/A     27  19  74 W6        30.16F WCI  20
REDWOOD FALLS  CLEAR     22  19  89 SW9       30.17S WCI  12
TRACY          MOCLDY    20  19  95 SW8       30.16F FOG     WCI  11
WINDOM         CLEAR     19  18  93 W8        30.17S FOG     WCI   9
WORTHINGTON    CLOUDY    18  14  86 W9        30.18S VSB 1/2 WCI   6
$$

IAZ001>003-012>014-020>022-031-032-NEZ013-014-SDZ071-060800-
NORTHWEST IOWA

CITY           SKY/WX    TMP DP  RH WIND       PRES   REMARKS
ESTHERVILLE    CLOUDY    26  25  96 W10       30.18F FOG     WCI  16
SIOUX CITY     CLEAR     26  24  92 W3        30.24S
SPENCER        CLOUDY    26  23  88 W7        30.20S FOG     WCI  18
STORM LAKE     CLOUDY    28  28 100 NW8       30.21S FOG     WCI  20
$$

ABBREVIATIONS USED IN REMARKS
   TC - TEMPERATURE IN CELSIUS
  WCI - WIND CHILL INDEX
   HX - HEAT INDEX
  VSB - VISIBILITY





USA.gov is the U.S. government's official web portal to all federal, state and local government web resources and services.